{"data":{"norad_id":65914,"epoch":"2026-05-24T11:02:03.342624Z","epoch_age_seconds":117809,"freshness":"FRESH","line1":"1 65914U 25225E   26144.45976091  .00003305  00000+0  12364-3 0  9998","line2":"2 65914  53.1581 173.3944 0001163  87.8823 272.2311 15.30209829 36015","mean_motion":15.30209829,"eccentricity":0.0001163,"inclination_deg":53.1581,"raan_deg":173.3944,"arg_perigee_deg":87.8823,"mean_anomaly_deg":272.2311,"bstar":0.00012364,"rev_number":3601,"period_min":94.104741239379,"perigee_km":474.38868052154,"apogee_km":475.98276338667,"semimajor_km":6853.3227219541,"source":"CELESTRAK","updated_at":"2026-05-25T13:38:20.986494Z"}}